This demonstration page uses our WeatherBlox Daily Observations layout. Learn more.

Left ArrowRight Arrow

39.92423, -83.80882

Hourly Observations for July 28, 2021

Temp ( °F °C ) Dew Point ( °F °C ) Humidity (%) Winds ( mph kmh ) Pressure ( in mb ) Visibility ( mi km ) Precip ( " mm )
12:56 am 00:56 Clear 66 19 N/A N/A N N/A 30.06 1018 10 16 N/A
1:56 am 01:56 Clear 64 18 N/A N/A N N/A 30.06 1018 8 13 N/A
2:56 am 02:56 Clear 66 19 N/A N/A N N/A 30.05 1018 10 16 N/A
3:56 am 03:56 Clear 64 18 N/A N/A N N/A 30.06 1018 9 14 N/A
4:56 am 04:56 Clear 64 18 N/A N/A N N/A 30.06 1018 8 13 N/A
5:56 am 05:56 Hazy 63 17 N/A N/A N N/A 30.05 1018 6 10 N/A
6:56 am 06:56 Hazy 64 18 N/A N/A WSW 3 6 30.07 1018 6 10 N/A
7:56 am 07:56 Hazy 68 20 N/A N/A N N/A 30.08 1019 6 10 N/A
8:56 am 08:56 Sunny 74 23.3 73 22.8 97 97 W 5 7 30.09 1019 9 14 N/A
9:56 am 09:56 Sunny 77 25 73 22.8 88 88 WNW 3 6 30.08 1019 10 16 N/A
10:56 am 10:56 Mostly Cloudy 80 26.7 72 22.2 76 76 NW 8 13 30.07 1018 10 16 N/A
11:54 am 11:54 Mostly Cloudy 82 28 72 22 70 70 NNW 8 13 30.03 1017 10 16 N/A
11:56 am 11:56 Mostly Cloudy 82 27.8 72 22.2 72 72 NNW 9 15 30.07 1018 10 16 N/A
12:56 pm 12:56 Partly Cloudy 83 28.3 70 21.1 65 65 NW 9 15 30.07 1018 10 16 N/A
1:56 pm 13:56 Sunny 84 28.9 69 20.6 61 61 W 5 7 30.06 1018 10 16 N/A
2:56 pm 14:56 Sunny 85 29.4 71 21.7 63 63 W 7 11 30.05 1018 10 16 N/A
3:56 pm 15:56 Sunny 85 29.4 70 21.1 61 61 NW 5 7 30.04 1017 10 16 N/A
4:56 pm 16:56 Sunny 86 30 69 20.6 57 57 VRB 3 6 30.03 1017 10 16 N/A
5:56 pm 17:56 Sunny 85 29.4 69 20.6 59 59 NW 5 7 30.03 1017 10 16 N/A
6:56 pm 18:56 Sunny 84 28.9 70 21.1 63 63 NW 3 6 30.02 1017 10 16 N/A
7:56 pm 19:56 Sunny 80 26.7 74 23.3 82 82 N N/A 30.02 1017 10 16 N/A
8:56 pm 20:56 Clear 77 25 77 25 100 100 N N/A 30.02 1017 10 16 N/A
9:56 pm 21:56 Clear 73 23 N/A N/A N N/A 30.02 1017 10 16 N/A
10:56 pm 22:56 Clear 72 22.2 72 22.2 100 100 N N/A 30.01 1016 10 16 N/A
11:56 pm 23:56 Clear 72 22 N/A N/A N N/A 30.00 1016 10 16 N/A

Powered by AerisWeather